Regional Weather Roundup
Issued by NWS Goodland, KS

Home | Current Version | Previous Version | Graphics & Text | Print | Product List | Glossary On
Versions: 1 2 3 4 5 6 7 8 9 10 11 12 13 14 15 16 17 18 19 20 21 22 23 24 25 26 27 28 29 30 31 32 33 34 35 36 37 38 39 40 41 42 43 44 45 46 47 48 49 50
835
ASUS43 KGLD 291008
RWRGLD

GOODLAND FORECAST AREA HOURLY WEATHER ROUNDUP
NATIONAL WEATHER SERVICE GOODLAND KS
400 AM MDT FRI JUL 29 2016

...OFFICIAL OBSERVATIONS...

CITY           SKY/WX    TMP DP  RH WIND       PRES   REMARKS
GOODLAND KS    CLOUDY    61  59  93 NW3       30.12F
HILL CITY KS   CLOUDY    68  66  93 NW6       30.05S
IMPERIAL NEB   CLEAR     62  60  93 W5        30.12F
MCCOOK NEB     CLEAR     59  58  96 CALM      30.08F
AKRON CO       LGT RAIN  61  57  87 S8        30.20R
BURLINGTON CO  CLOUDY    62  58  86 CALM      30.15F
LIMON CO       CLEAR     58  56  93 SW3       30.22F
$$

...UNOFFICIAL OBSERVATIONS...

CITY           SKY/WX    TMP DP  RH WIND       PRES   REMARKS
COLBY KS       CLEAR     63  63 100 N3        30.10F FOG
LENORA KS        N/A     65  32  29 MISG        N/A
NORTON KS      PTCLDY    63  59  88 NW5       30.05F FOG
SHARON SPRINGS   N/A     62  60  94 CALM        N/A
KIT CARSON CO    N/A     61  57  87 CALM        N/A
YUMA CO          N/A     61  59  92 CALM        N/A
$$




USA.gov is the U.S. government's official web portal to all federal, state and local government web resources and services.